Weather in Meribel

France     45°23′47″N   6°33′55″E
temp.,
°C
wind,
m/s
gust,
m/s
humid.,
%
clouds,
%
prec.,
mm/h
press.,
hPa
HPBL,
m
20 april, tue
tue2023:00−1se218767 0.1 101918
02:00−2ese228833 0.1 101924
05:00−2ese22865 0.0 101928
08:000ese22775 0.0 101896
11:00+6nw11585 0.0 1015914
14:00+9nw114877 0.1 10121884
17:00+9w224770 0.5 10111716
20:00+4nnw017732 1.5 101311
21 april, wed
wed2123:00+1se218988 0.5 101722
02:00+1se1189100 0.5 101816
05:00+1sse0094100 0.1 1017119
08:00+2ne019599 0.6 1017243
11:00+5wnw2181100 0.4 1016670
14:00+5wnw2281100 1.1 1015736
17:00+6nw2281100 1.1 1014585
20:00+4w1195100 4.3 1016217
22 april, thu
thu2223:00+3s1198100 3.3 1018358
02:00+2e0197100 4.4 1018354
05:00+1se119378 0.1 101971
08:00+2ese118466 0.1 1019114
11:00+7nw116634 0.0 1017987
14:00+8nw2162100 0.1 10161202
17:00+7nw117380 0.3 1016647
20:00+5wnw11867 0.6 101711
23 april, fri
fri2323:00+3s119156 0.1 101914
02:00+1se219213 0.2 102014
05:000ese21916 0.0 102016
08:00+3ese11813 0.0 101969
11:00+9nw21604 0.0 1017834
14:00+12wnw22465 0.0 10161507
17:00+12wnw214810 0.0 10161620
20:00+8wnw21765 0.0 101821
24 april, sat
sat2423:00+5se21873 0.0 102113
02:00+4se22853 0.0 102217
05:00+3se228411 0.0 102226
08:00+5ese227689 0.0 102174
11:00+12wnw1155100 0.0 1019846
14:00+15wnw2243100 0.0 10171479
17:00+14nw214922 0.0 10181501
20:00+10wnw1171100 0.0 101842